Tracking 28335 objects as of 4-Dec-2023
HD Live streaming from Space Station
objects crossing your sky now

AMC-9 (GE-12)

Track AMC-9 (GE-12) now!
AMC-9 (GE-12) is classified as:


NORAD ID: 27820
Int'l Code: 2003-024A
Perigee: 36,090.8 km
Apogee: 36,198.0 km
Inclination: 5.6 °
Period: 1,454.0 minutes
Semi major axis: 42515 km
RCS: 43.0775 m2 (large)
Launch date: June 6, 2003
Source: SOCIETE EUROPEENNE DES SATELLITES (SES)
Launch site: TYURATAM MISSILE AND SPACE COMPLEX (TTMTR)

Television programmers, government agencies and enterprise networks; 24 Ku-band; CONUS and Mexico.
Your satellite tracking list
Your tracking list is empty




NASA's NSSDC Master Catalog

Two Line Element Set (TLE):
1 27820U 03024A   23338.04815025 -.00000091  00000-0  00000+0 0  9992
2 27820   5.5868  75.8310 0012605 317.7192  69.1753  0.99033740 74772
Source of the keplerian elements: AFSPC